Погода в Сморгони

Беларусь     54°28′53″N   26°24′09″E
темп.,
°C
ветер,
м/с
пор.,
м/с
влажн.,
%
обл.,
%
осадки,
мм/ч
давл.,
гПа
погр.,
м
14 апреля, ср
ср1400:00+5ссз5884100 0.0 1019441
03:00+4ссз4788100 0.0 1018468
06:00+3с4891100 0.0 1018470
09:00+3с5891100 0.1 1018453
12:00+4ссв5991100 0.1 1018497
15:00+4ссв51091100 0.8 1018547
18:00+4ссв51091100 0.5 1017486
21:00+4ссв51195100 1.3 1018441
15 апреля, чт
чт1500:00+4св51296100 1.7 1017447
03:00+4св51296100 2.6 1018485
06:00+5св51296100 0.1 1018539
09:00+5св51294100 0.4 1019463
12:00+4ссв51193100 1.3 1019491
15:00+4ссв51192100 2.0 1019558
18:00+4ссв51194100 2.4 1018557
21:00+4ссв51295100 4.2 1018593
16 апреля, пт
пт1600:00+5св51295100 1.5 1017603
03:00+5св51296100 1.6 1016514
06:00+5св61395100 0.4 1016602
09:00+6св51293100 0.6 1017647
12:00+7св61091100 1.1 1018674
15:00+10всв6981100 1.1 1018873
18:00+9св51085100 0.0 1019826
21:00+8св51188100 0.1 1019579
17 апреля, сб
сб1700:00+8св5119399 0.2 1020612
03:00+7всв3997100 0.3 1020363
06:00+8св399779 0.1 1021363
09:00+9всв5887100 0.1 1022617
12:00+11в5778100 0.1 1023834
15:00+12всв5873100 0.6 10231013
18:00+12всв5875100 0.8 1023776
21:00+9всв4109184 1.2 1024369
18 апреля, вс
вс1800:00+8всв3996100 0.6 1024298
03:00+9всв41089100 1.0 1023403
06:00+8в4989100 0.0 1024417
09:00+8в4983100 0.0 1024419
12:00+13вюв466678 0.0 1024984
15:00+15вюв5759100 0.1 10241653
18:00+12вюв4873100 0.0 1024673
21:00+10в3978100 0.1 1025449